Hourly Data Report for October 23, 2016

All times are specified in Local Standard Time (LST). Add 1 hour to adjust for Daylight Saving Time where and when it is observed.

BATHURST A
NEW BRUNSWICK

47°37'47.000" N
65°44'20.000" W
58.80 m
8100505
71574
ZBF

Download Data

Hourly Data (October 2016)
Hourly Data Report for October 23, 2016
Temp Definition
°C
Dew Point Temp Definition
°C
Rel Hum Definition
%
Wind Dir Definition
10's deg

Wind Spd Definition
km/h
Visibility Definition
km
Stn Press Definition
kPa
Hmdx Definition


Wind Chill Definition


Weather Definition


TIME
00:00 Legend Double Dagger 10.1 10.1 100 2 5 1.2 98.04     Drizzle,Fog
01:00 Legend Double Dagger 10.2 10.2 100 36 1 0.6 98.03     Fog
02:00 Legend Double Dagger 11.5 11.5 100 17 11 12.9 98.03     Mostly Cloudy
03:00 Legend Double Dagger 12.0 10.9 93 17 14 24.1 97.99     LegendNANA
04:00 Legend Double Dagger 11.8 11.0 95 16 17 12.9 97.96     Drizzle
05:00 Legend Double Dagger 11.4 10.8 96 17 17 4.8 97.95     Drizzle,Fog
06:00 Legend Double Dagger 10.5 9.9 96 18 23 6.4 97.93     Drizzle,Fog
07:00 Legend Double Dagger 9.6 7.6 87 18 19 24.1 97.95     LegendNANA
08:00 Legend Double Dagger 9.3 6.8 84 18 21 24.1 98.01     Mostly Cloudy
09:00 Legend Double Dagger 8.7 6.0 83 18 26 24.1 97.98     LegendNANA
10:00 Legend Double Dagger 8.8 6.3 84 19 25 24.1 97.96     Rain Showers
11:00 Legend Double Dagger 8.6 6.6 87 18 17 19.3 97.92     Rain Showers
12:00 Legend Double Dagger 7.6 5.1 84 22 21 12.9 97.91     Rain Showers
13:00 Legend Double Dagger 7.0 3.8 80 22 26 19.3 97.95     LegendNANA
14:00 Legend Double Dagger 5.9 2.4 78 21 18 24.1 98.00     Cloudy
15:00 Legend Double Dagger 6.2 1.9 74 20 25 19.3 98.03     Dust
16:00 Legend Double Dagger 6.3 1.3 70 22 23 24.1 98.08     LegendNANA
17:00 Legend Double Dagger 5.5 1.8 77 21 17 24.1 98.13     Mostly Cloudy
18:00 Legend Double Dagger 4.9 2.4 84 21 8 24.1 98.19     LegendNANA
19:00 Legend Double Dagger 4.5 2.0 84 20 12 24.1 98.25     LegendNANA
20:00 Legend Double Dagger 4.3 2.0 85 20 14 24.1 98.29     Cloudy
21:00 Legend Double Dagger 4.1 2.0 86 20 9 24.1 98.31     LegendNANA
22:00 Legend Double Dagger 4.4 1.4 81 22 10 24.1 98.33     LegendNANA
23:00 Legend Double Dagger 4.6 0.7 76 23 16 24.1 98.32     Cloudy

Notes on Data Quality.

Legend

  • E = Estimated
  • M = Missing
  • NA = Not Available
  • ‡ = Partner data that is not subject to review by the National Climate Archives
Date modified: